Wind_Speed
12 12 12 13 13 13 13 14 15 16 16 16 16 17 18 18 19 19 19 19 18 15 12 8 6 5 5 6 7 7 8 8 8 6 6 9 11 10 11 11 11 11 11 9 8 6 4 3 4 4 4 1 3 3 3 4 3 3 3 4 2 3 3 5 7 7 5 4 6 7 8 8 5 7 11 8 8 13 12 10 10 10 11 16 17 16 18 15
11 12 12 12 13 13 13 13 14 15 16 16 16 16 17 18 18 19 19 19 17 15 12 8 5 4 3 4 6 6 6 6 5 5 7 8 9 9 10 10 11 11 11 11 9 7 4 4 6 6 4 2 3 3 2 3 3 3 3 4 2 4 4 3 6 9 5 5 8 6 9 11 9 13 16 7 5 12 11 9 11 13 16 17 18 17 16 15
10 11 11 12 12 12 12 12 13 14 15 15 15 15 16 17 18 19 19 19 17 15 12 8 5 2 3 3 4 5 5 4 4 5 6 6 7 8 9 10 10 10 12 13 12 11 8 7 8 8 5 3 4 4 3 4 3 1 4 3 4 6 4 4 7 12 8 8 9 8 10 9 12 17 15 10 8 7 7 12 13 15 20 19 19 18 16 16
9 10 10 11 11 12 12 11 11 12 13 14 14 14 15 16 17 18 19 19 17 15 12 9 5 2 2 4 4 4 2 0 2 3 5 5 6 7 8 9 9 9 11 12 12 12 10 9 9 7 3 3 6 4 3 6 5 1 3 3 5 6 4 6 10 10 9 10 11 10 10 8 15 17 14 15 9 4 12 21 18 17 25 23 21 19 16 16
9 10 10 10 10 11 11 11 11 10 11 12 13 14 14 16 17 18 19 19 17 15 13 10 5 2 1 4 5 4 2 1 2 3 3 3 4 5 6 7 7 8 9 11 11 11 9 10 9 6 3 3 7 5 3 7 6 2 0 2 6 8 4 7 11 9 10 11 9 9 8 9 14 14 17 21 11 6 16 25 19 17 24 23 22 20 17 16
9 10 9 10 10 10 11 11 11 10 10 10 12 13 13 15 16 17 18 19 17 15 14 11 7 3 0 3 4 4 2 1 4 5 3 2 2 3 4 5 5 6 9 9 9 9 9 11 11 6 4 3 5 3 3 7 6 2 1 1 5 7 4 9 12 9 11 12 11 9 8 11 12 8 17 24 15 7 11 20 18 16 21 21 20 20 18 16
10 10 10 10 10 10 10 10 10 10 10 10 10 11 12 14 15 16 17 18 17 15 14 13 8 4 2 3 4 4 4 3 5 6 4 3 1 1 3 3 4 5 7 7 7 9 10 12 12 7 4 3 3 3 5 8 4 2 2 2 3 5 4 9 10 10 12 12 12 10 9 12 11 6 13 22 18 10 8 17 18 19 23 21 20 19 18 17
11 11 11 10 10 10 11 11 10 10 10 10 10 10 11 12 14 15 15 16 17 14 13 13 10 5 4 3 4 4 5 5 7 7 5 4 1 0 2 2 3 5 6 6 6 8 10 12 11 7 3 1 2 3 5 7 3 3 2 3 2 3 3 6 8 9 11 11 10 9 7 8 11 9 11 18 18 12 14 19 20 23 24 22 21 20 19 18
12 12 12 12 12 12 12 12 12 11 11 10 10 9 10 11 12 14 14 15 16 14 12 13 10 6 5 5 4 4 6 6 7 8 7 5 2 1 1 1 1 4 5 4 4 6 8 9 9 6 1 1 1 3 4 5 2 1 2 5 3 3 3 4 8 10 12 11 10 8 2 2 8 7 7 16 18 16 20 22 24 26 25 24 22 20 20 19
14 14 13 13 14 13 13 13 13 13 12 12 10 10 10 10 12 13 14 14 15 14 12 12 10 6 6 7 5 3 5 7 9 9 8 6 3 2 1 1 0 3 4 4 3 4 6 8 8 6 2 1 1 3 3 2 2 4 4 7 7 8 7 5 8 11 12 10 10 7 1 0 8 4 5 14 20 22 24 25 25 25 25 25 22 21 20 18
15 15 15 15 15 15 15 14 15 15 14 13 12 11 10 11 11 12 14 13 15 14 11 12 11 7 6 7 8 5 5 7 10 10 9 7 4 3 2 2 2 2 4 4 2 1 4 7 8 6 2 1 3 3 2 1 4 7 7 8 8 8 9 6 7 10 11 7 9 7 1 0 4 3 8 17 24 26 27 27 27 26 25 24 23 22 19 18
15 16 16 16 16 16 16 15 16 16 16 15 14 12 11 11 11 12 14 13 15 14 10 11 12 8 6 8 12 10 8 8 10 10 10 8 6 4 3 4 3 3 3 4 3 2 2 5 7 5 2 3 3 2 1 3 6 6 4 6 7 9 8 4 3 7 10 4 7 5 2 3 5 8 9 17 27 28 27 28 28 28 26 25 24 22 20 18
16 16 16 16 17 17 17 17 17 16 17 16 15 14 12 12 11 12 14 13 14 12 9 11 11 8 7 8 11 11 10 9 11 11 10 9 7 6 5 5 5 3 4 4 4 3 2 5 5 5 3 2 1 0 3 5 5 3 3 3 4 8 6 3 3 4 7 4 8 6 4 6 8 13 10 17 29 30 29 30 30 30 28 27 25 23 21 19
17 17 17 17 17 17 18 17 18 17 17 17 16 15 13 13 12 13 14 12 12 10 8 11 10 8 8 8 9 10 11 11 11 11 11 11 9 7 7 6 6 5 5 5 4 3 2 5 5 4 2 1 2 2 3 5 3 1 1 2 3 4 4 5 3 5 5 5 10 7 4 9 8 13 12 20 30 32 31 32 32 32 30 29 27 25 23 21
19 19 18 18 18 18 18 18 18 18 18 18 17 16 15 14 14 13 13 11 11 10 9 13 10 7 8 9 10 10 11 12 12 12 12 12 10 9 8 7 8 7 6 6 5 4 3 5 3 2 1 2 2 1 2 4 3 3 1 3 3 0 5 9 4 7 5 3 9 7 3 10 9 11 15 24 30 33 32 32 33 33 33 31 29 27 25 22
21 21 20 20 19 19 19 19 19 19 19 19 18 17 15 15 15 13 11 11 12 10 10 12 8 8 6 7 9 10 12 13 13 13 14 13 11 10 9 9 9 8 7 6 4 4 2 4 1 1 2 1 2 3 3 4 4 4 1 3 3 1 3 7 4 5 4 2 5 6 4 8 7 6 12 25 31 33 30 28 32 34 34 34 31 30 27 24
22 22 22 21 20 20 20 20 20 21 20 20 20 19 16 16 14 11 11 13 12 11 10 10 7 7 9 10 9 11 13 13 14 14 14 13 12 11 11 11 9 8 7 5 4 3 2 2 1 0 2 3 2 4 4 4 4 4 2 1 4 3 2 4 6 3 1 2 5 6 6 12 11 2 9 24 32 32 28 28 33 34 35 34 33 31 29 28
23 23 23 22 22 21 20 20 21 21 21 21 21 20 19 15 10 11 14 13 9 7 8 9 6 3 8 12 10 9 10 12 15 15 14 13 13 12 11 10 9 8 5 3 3 2 1 1 2 1 3 4 3 5 1 4 3 3 3 2 4 3 4 5 6 3 1 2 5 4 7 15 16 7 10 22 29 31 31 31 33 33 34 34 34 33 31 30
23 23 23 23 22 22 21 21 21 21 22 21 20 21 18 12 9 10 10 7 5 5 6 8 10 4 5 9 10 10 9 10 14 15 15 13 12 12 11 9 8 7 3 1 2 1 1 2 3 2 3 4 3 4 6 7 6 4 4 4 4 5 6 6 7 4 1 3 7 7 9 14 17 12 10 19 28 31 31 30 28 28 31 33 34 35 34 32
24 23 24 24 23 23 22 21 21 21 22 21 21 20 14 10 8 6 3 7 9 13 14 13 14 14 12 10 10 12 11 11 13 14 14 13 12 11 10 8 7 5 1 1 2 1 3 2 2 5 6 7 7 7 6 5 5 3 2 4 5 5 7 7 5 4 2 3 8 9 10 13 17 16 13 18 25 25 24 25 25 27 31 34 36 37 36 35
25 24 24 24 24 23 22 22 22 20 20 20 19 16 11 8 5 4 7 10 13 15 19 19 19 22 21 16 13 11 11 11 13 15 15 14 13 9 8 6 3 3 2 1 1 1 4 2 5 8 9 7 6 5 5 3 3 2 2 4 6 5 8 9 4 4 1 3 6 6 7 12 15 16 15 13 15 19 25 26 28 30 32 35 38 39 38 35
27 25 24 25 24 23 21 21 21 20 18 17 15 13 10 9 7 7 10 11 15 16 19 22 24 27 25 22 19 15 12 10 12 16 16 15 14 9 7 5 3 3 2 2 2 3 4 3 9 8 5 4 3 5 6 3 3 2 2 1 5 4 4 8 5 5 2 3 5 7 8 12 13 17 17 13 15 21 31 36 36 35 35 37 38 39 39 36
28 27 25 25 24 23 22 21 21 19 17 15 13 10 9 10 9 11 10 8 14 16 16 19 21 23 22 19 18 15 14 11 10 15 18 16 13 10 7 5 4 1 1 2 5 1 2 6 7 3 6 7 3 3 5 1 1 3 3 2 5 4 2 5 4 5 4 2 5 9 10 10 10 15 19 15 19 24 30 37 38 37 37 40 41 41 42 41
29 28 27 25 25 24 22 21 19 18 16 13 12 10 8 9 9 12 10 6 8 10 12 15 15 16 15 12 12 13 14 12 9 12 19 18 12 8 7 6 4 1 3 5 7 5 6 6 3 5 5 6 3 0 3 2 4 4 5 6 6 6 5 6 4 6 6 4 4 8 10 8 7 13 15 8 9 17 22 27 30 34 37 36 36 38 41 42
31 29 27 26 25 24 22 20 18 17 15 11 10 9 7 9 9 11 8 3 5 6 7 10 9 9 11 9 8 10 10 10 10 11 17 20 15 7 4 5 4 3 5 4 5 5 7 4 4 5 2 4 4 3 4 6 3 5 5 9 9 8 8 6 5 6 5 4 4 6 7 7 2 6 11 6 3 9 12 15 23 32 33 31 33 36 38 40
31 29 28 26 25 23 20 17 15 14 11 10 9 8 6 7 7 8 6 3 3 5 3 5 6 5 8 9 9 9 3 6 11 12 15 18 17 9 4 4 3 3 5 5 2 3 3 1 3 5 5 4 4 5 5 7 4 3 4 6 7 5 4 4 4 4 2 3 2 4 2 9 3 3 10 8 7 10 9 10 18 26 29 32 36 37 38 39
30 28 28 26 24 22 18 14 14 12 9 8 8 7 6 5 4 6 5 3 4 4 4 5 6 7 8 9 12 10 1 3 8 11 15 15 15 11 6 3 2 2 4 4 1 3 3 2 4 5 5 4 4 5 6 8 7 3 4 5 5 2 1 1 2 0 3 3 3 3 4 8 8 5 8 7 8 12 12 12 14 20 27 33 37 36 37 40
27 26 26 23 22 21 18 16 15 12 10 9 7 7 6 4 3 3 3 2 4 3 4 3 5 7 8 10 15 9 1 5 6 8 14 14 12 9 5 6 6 4 4 5 4 5 3 4 4 5 4 3 6 6 8 11 5 5 4 5 4 3 2 2 2 2 2 3 5 4 6 5 9 5 3 2 6 11 14 16 14 16 27 33 34 34 35 39
25 25 24 21 20 20 18 17 15 13 12 11 9 8 5 3 1 3 3 3 3 2 2 4 5 6 6 8 12 9 2 2 2 6 13 11 10 6 2 5 6 4 2 3 5 6 1 3 6 7 5 6 6 4 7 10 4 3 5 5 4 4 3 3 2 0 2 3 9 6 8 4 8 4 2 2 4 9 12 13 12 15 26 31 30 32 35 38
23 23 22 20 20 20 18 16 16 13 12 11 10 7 4 3 3 3 3 5 3 0 3 4 5 5 7 6 4 6 3 3 1 7 9 7 7 4 3 2 3 4 1 4 3 5 2 1 0 3 5 5 4 2 2 4 3 4 6 4 5 4 4 4 2 3 3 4 10 7 12 8 6 3 6 4 5 8 8 9 8 11 21 26 28 32 36 38
20 20 19 18 19 19 17 15 15 14 13 12 10 8 5 3 4 3 7 4 2 1 2 3 2 4 7 5 2 3 2 3 4 8 5 3 3 2 4 3 2 3 3 5 4 6 4 1 2 3 3 4 7 4 2 2 3 5 4 4 4 4 3 4 4 4 1 6 6 3 9 9 8 6 4 5 7 6 6 7 7 9 16 24 29 33 37 39
18 17 16 17 19 19 17 15 14 14 14 13 12 10 6 1 1 4 5 2 1 3 3 3 2 3 5 2 1 4 2 2 5 6 4 3 3 3 4 5 4 1 4 3 3 5 3 4 3 2 1 5 5 4 2 4 4 5 4 4 3 4 4 4 3 1 3 7 3 2 4 5 12 11 8 10 11 9 8 9 12 11 14 22 30 33 36 39
17 15 16 16 18 19 19 16 14 15 15 15 13 8 6 2 6 6 5 3 2 3 2 2 1 3 5 3 3 3 2 3 5 4 3 3 2 5 5 4 5 3 4 3 1 3 4 4 1 1 3 7 9 5 2 2 1 5 4 4 3 1 1 4 4 2 5 6 2 4 4 4 10 8 11 16 15 12 10 14 18 16 15 21 28 33 36 38
16 14 16 17 17 20 20 17 16 16 16 17 13 6 3 6 6 4 7 7 2 1 2 3 3 3 4 3 4 4 3 3 4 5 3 3 2 5 6 5 4 2 2 2 0 2 3 6 3 5 2 6 10 6 5 5 3 4 4 4 5 5 4 4 4 4 5 7 4 4 3 4 5 3 7 10 9 8 9 14 18 17 17 19 24 31 35 38
15 14 15 16 18 20 20 19 19 17 18 19 11 4 7 9 3 3 6 6 2 1 1 2 5 4 2 3 4 3 5 4 2 5 4 4 4 4 5 6 6 5 5 3 2 2 3 7 5 2 0 5 6 2 5 6 2 1 2 4 2 4 5 2 3 4 1 6 6 3 4 6 4 3 5 2 5 5 7 9 9 11 15 17 23 30 34 38
14 14 15 17 20 19 20 22 20 18 20 17 7 6 11 7 3 4 4 4 4 4 4 2 3 3 4 3 3 3 3 2 1 3 4 3 3 5 4 5 8 9 8 5 3 2 1 6 4 2 2 2 1 2 1 2 2 2 2 3 4 4 5 2 4 2 4 2 6 3 6 8 6 5 4 3 3 5 5 5 4 9 14 19 25 30 35 39
16 16 20 22 22 19 20 22 19 18 20 14 7 10 7 5 7 6 4 4 4 5 7 2 3 5 5 3 4 5 2 1 2 3 3 3 3 6 5 5 8 14 14 8 3 4 3 5 4 2 2 2 1 1 2 2 3 4 3 5 3 2 4 3 1 3 2 3 6 4 9 13 9 6 1 3 3 9 6 4 4 8 14 20 25 30 35 39
16 16 22 25 24 21 20 22 19 18 16 9 10 12 4 4 9 7 6 5 3 4 6 5 5 5 6 5 4 4 5 4 4 3 3 3 4 5 7 5 7 12 15 10 3 2 3 3 4 1 2 3 3 1 1 3 3 5 3 2 2 2 1 2 2 2 1 3 6 5 8 13 10 5 3 3 8 10 8 5 5 8 14 20 25 30 34 37
15 14 19 23 25 25 22 23 22 18 12 7 11 10 4 4 7 10 13 8 3 4 4 6 6 3 4 6 4 4 6 6 5 4 4 4 4 5 7 6 5 6 9 10 5 2 3 2 4 1 2 2 3 1 4 2 1 3 0 1 1 3 3 3 3 3 3 3 7 5 8 13 9 5 6 8 10 10 8 8 9 11 18 24 28 31 35 38
17 11 13 15 17 22 25 25 23 16 9 9 12 7 2 3 7 16 23 14 4 5 5 3 4 4 4 5 4 3 5 5 6 5 4 4 4 5 6 7 5 4 2 5 4 1 3 2 4 2 3 1 2 4 7 8 5 3 2 2 2 1 1 1 2 2 4 4 5 3 7 15 7 5 7 8 9 11 11 11 10 13 22 28 30 34 38 41
21 9 9 10 9 19 29 24 17 11 6 8 10 6 3 5 7 13 22 22 12 7 5 5 6 7 5 5 4 4 5 5 6 6 4 5 5 5 9 12 10 8 4 4 2 4 3 3 4 2 1 4 6 5 5 7 7 6 6 7 7 6 3 1 4 4 3 4 5 3 6 17 8 4 5 6 7 9 11 11 10 15 25 29 31 36 39 42
22 10 8 10 11 24 32 18 10 10 6 8 9 7 8 7 6 8 14 18 14 8 5 5 7 7 5 5 5 5 6 4 6 7 5 7 10 7 10 17 18 16 10 3 2 4 3 3 3 4 5 6 6 4 1 3 2 3 5 5 6 6 6 6 8 5 2 4 4 4 5 17 7 4 3 5 6 8 10 12 12 17 27 31 33 37 38 41
26 16 11 11 17 32 29 8 8 8 5 9 10 10 12 8 4 7 10 12 10 7 8 7 7 9 7 5 6 6 7 6 7 8 5 6 11 11 12 20 21 14 8 2 1 3 3 2 3 5 4 2 4 4 2 2 2 3 6 5 6 8 9 8 6 3 2 4 3 3 9 16 4 3 2 1 2 5 9 16 17 18 24 29 32 36 38 39
27 22 18 14 21 33 24 5 7 10 8 10 10 12 15 12 10 10 10 12 12 8 8 9 7 8 8 6 8 8 7 7 7 8 9 8 7 11 18 26 23 13 8 8 8 9 5 2 3 4 5 4 4 3 3 2 1 5 6 5 8 11 8 2 1 1 4 9 8 5 13 17 5 1 1 1 1 3 7 16 21 19 22 28 33 35 37 38
18 16 19 23 31 38 28 14 8 8 10 12 11 12 12 10 16 22 17 16 17 10 6 8 8 10 8 5 7 9 8 10 10 6 9 8 3 5 15 26 26 16 11 12 15 16 8 3 5 7 8 8 7 6 4 3 3 3 4 6 11 14 12 6 2 4 9 11 10 10 16 19 12 3 1 3 5 5 7 13 18 20 22 27 31 34 37 39
14 9 10 19 34 41 37 29 16 6 8 11 8 9 13 12 14 23 23 18 18 13 7 6 8 10 7 7 8 10 11 13 11 5 6 7 4 3 8 19 23 17 10 10 17 16 5 2 9 12 12 13 14 12 6 6 5 5 7 11 14 15 15 10 5 9 11 5 7 17 22 21 24 17 6 8 12 9 8 10 14 20 24 26 31 36 39 40
15 10 9 12 19 25 28 28 21 9 5 9 6 6 15 17 11 12 18 17 17 17 11 8 9 9 9 12 12 11 13 13 13 13 12 7 3 2 2 8 13 14 8 8 14 12 3 5 14 16 18 18 18 17 8 7 8 11 10 12 14 14 14 13 13 17 12 3 9 25 23 19 29 27 15 16 19 11 8 10 15 22 27 30 33 34 36 37
18 16 20 22 14 9 15 22 21 13 8 9 8 6 11 16 13 11 13 12 14 19 13 9 14 19 19 17 11 9 11 11 13 18 16 9 4 1 1 1 5 9 7 4 8 7 3 9 16 14 17 19 19 19 12 8 10 11 13 15 13 13 15 19 23 23 15 10 18 27 23 22 29 27 18 19 17 11 12 17 21 25 27 28 30 31 33 37
25 17 19 28 20 12 19 27 23 17 15 14 10 10 14 19 20 14 8 5 8 16 17 14 18 25 23 16 11 10 12 14 16 17 14 11 9 5 3 4 3 6 7 4 4 4 4 9 15 12 13 17 18 18 13 12 12 12 19 23 14 14 19 22 22 22 20 21 26 27 26 29 30 23 20 23 20 15 17 19 20 23 24 26 30 32 36 40
32 23 15 19 19 17 21 23 18 13 16 16 12 14 19 22 22 13 8 9 9 10 17 22 23 20 17 16 16 17 21 22 18 15 10 9 9 7 6 7 4 4 6 5 2 3 5 8 8 6 8 14 17 13 9 10 11 12 23 28 17 15 20 20 18 19 19 22 27 27 25 27 26 21 21 25 24 19 16 15 18 23 26 30 33 34 38 43
45 36 24 13 9 12 14 11 11 10 10 13 14 18 19 20 22 14 7 15 20 13 14 22 25 17 11 15 20 24 29 26 20 19 16 13 13 12 9 9 8 7 6 6 3 3 5 4 1 3 6 13 10 4 3 2 2 10 26 30 23 18 18 18 17 17 18 20 23 22 19 20 22 21 18 17 15 13 13 14 18 24 29 33 34 36 41 45
50 38 34 24 10 10 11 6 8 11 10 14 19 20 18 18 19 13 7 15 26 27 21 20 20 15 8 13 25 34 39 36 29 26 21 14 15 16 11 10 13 12 8 6 4 4 6 5 3 4 8 11 3 5 4 5 4 12 22 23 22 20 18 19 18 19 22 20 16 16 17 20 21 18 16 14 11 11 13 17 21 25 30 35 38 41 45 45
Wind_Direction
359 2 4 6 10 12 13 11 8 7 8 10 10 7 5 8 10 12 15 20 27 27 25 38 65 89 90 82 79 70 65 65 71 73 73 69 65 59 50 42 34 28 20 16 9 354 339 336 338 344 335 339 29 27 38 29 58 112 112 77 112 157 160 173 182 193 164 188 200 186 187 159 152 167 147 131 126 128 137 151 154 170 169 163 164 160 167 173
354 357 360 2 5 9 12 13 11 9 8 10 10 8 4 4 6 7 7 10 18 25 23 25 52 100 117 99 92 86 81 81 84 75 73 72 66 57 46 40 32 25 19 12 8 4 358 351 348 345 345 56 33 19 36 19 46 93 106 85 189 197 188 198 186 184 165 178 189 171 176 181 181 168 158 150 130 130 121 127 141 149 151 158 163 165 173 178
350 353 356 359 1 4 8 11 13 10 9 10 10 9 6 3 3 4 2 2 7 17 20 17 27 87 146 152 127 112 108 102 104 78 72 70 56 47 39 38 31 23 17 10 3 2 3 358 352 344 350 43 18 8 21 8 15 98 96 84 229 210 191 221 187 181 188 188 185 167 166 183 179 168 168 167 164 167 160 156 158 161 160 163 168 172 179 180
343 348 352 354 356 359 2 6 9 10 7 7 8 8 5 2 1 0 358 357 358 6 16 13 7 53 157 183 173 163 157 103 154 102 76 65 45 36 39 40 31 24 17 12 2 354 357 359 354 346 353 30 14 15 21 9 358 338 114 137 207 182 165 200 185 185 197 192 195 174 151 167 177 179 179 161 154 242 216 190 187 189 178 172 173 175 180 186
336 340 345 348 350 353 356 359 2 5 3 1 1 2 2 360 357 357 356 353 352 357 6 8 357 354 172 188 193 206 210 8 183 145 93 71 44 31 45 45 32 26 18 15 4 353 352 353 354 4 32 23 13 28 23 11 10 348 126 148 167 156 160 193 179 182 193 193 199 173 152 170 175 189 189 172 171 234 223 207 200 200 188 178 177 177 181 192
327 332 337 341 345 346 349 353 354 358 357 356 354 353 355 355 352 353 353 351 350 351 357 2 353 338 306 195 203 212 211 309 197 170 136 106 52 28 53 53 37 28 20 16 4 358 359 355 1 22 47 29 19 36 6 0 12 358 316 68 161 171 168 182 181 187 192 189 193 185 175 168 158 193 198 189 205 248 234 208 192 189 186 180 181 181 185 192
320 325 330 334 338 340 343 347 348 351 351 350 348 345 347 348 347 348 350 352 351 349 350 352 346 326 297 214 209 223 247 253 196 179 167 145 88 22 59 59 43 30 19 16 7 11 10 3 12 29 41 36 24 18 352 343 6 116 289 9 154 200 179 178 188 194 196 196 200 193 176 171 168 186 195 201 223 251 214 190 183 181 180 182 185 186 191 192
314 319 323 328 333 336 337 340 344 347 347 346 346 342 342 343 342 341 345 348 349 347 344 345 340 318 296 240 225 255 263 234 192 188 183 170 195 325 70 72 50 25 14 17 16 21 17 10 16 23 25 44 358 351 1 347 0 114 273 330 103 210 198 188 203 203 206 209 205 191 179 193 196 187 190 207 223 223 191 182 181 181 181 187 191 192 193 192
310 314 319 324 328 333 334 337 340 342 343 345 345 342 338 339 338 335 338 341 343 341 336 340 336 313 291 253 247 274 259 226 203 199 193 193 210 194 100 140 65 18 10 13 15 25 22 16 12 4 335 180 350 332 15 13 333 129 269 309 315 271 275 217 214 206 206 209 197 188 205 224 189 185 210 209 206 197 185 182 182 184 187 189 193 196 194 195
305 309 315 320 324 329 332 334 337 339 341 343 345 343 338 337 335 330 330 333 335 333 328 335 334 310 281 256 241 261 260 232 215 207 201 209 216 201 205 206 227 0 2 358 356 21 23 17 8 359 346 174 12 329 356 53 287 310 308 302 291 286 295 252 227 218 207 212 208 197 314 165 165 171 239 201 187 184 181 180 185 188 191 190 193 196 194 197
302 308 312 316 321 324 328 332 334 335 337 340 343 343 339 336 333 327 325 325 327 328 321 328 331 303 271 251 226 233 273 243 219 213 209 216 220 217 230 231 243 311 339 341 319 343 15 11 5 2 354 292 326 313 311 0 312 318 326 312 297 314 311 263 243 223 198 212 220 197 26 261 164 218 238 197 182 185 184 182 187 191 193 192 193 194 192 195
297 303 308 313 317 319 324 327 329 331 333 336 339 341 340 335 331 323 321 318 319 322 316 326 329 297 266 246 236 247 274 248 220 216 213 218 222 228 241 240 244 276 309 321 301 276 346 352 358 0 320 273 310 339 327 333 328 325 3 332 310 349 344 285 280 211 187 206 210 176 322 258 211 237 234 195 185 184 187 188 189 192 194 195 194 193 193 194
293 299 303 308 312 315 319 322 324 326 327 331 334 338 339 333 330 322 316 311 311 316 311 324 323 288 262 249 252 258 259 241 222 216 214 220 227 237 244 242 242 262 291 298 288 260 293 329 340 346 314 261 271 348 306 327 339 325 37 29 326 354 342 297 359 184 183 198 176 147 277 254 227 236 223 188 186 182 186 193 192 193 195 196 196 195 194 193
291 294 298 302 307 311 314 317 319 321 324 327 329 334 336 330 327 319 312 302 303 305 303 322 318 272 253 254 267 262 245 235 223 217 216 221 229 239 245 247 246 258 285 293 287 254 269 328 331 334 322 257 259 253 312 348 21 345 12 43 11 353 289 291 346 149 155 201 177 140 261 258 253 247 219 191 191 187 189 195 195 196 197 198 198 197 198 195
289 292 295 298 302 306 310 313 316 318 320 322 324 329 332 328 323 318 307 291 294 292 290 314 306 252 251 259 264 259 243 232 222 218 218 224 233 241 245 249 249 255 270 281 275 238 266 324 324 337 321 291 316 339 347 353 10 28 357 314 341 340 272 304 300 177 171 200 179 148 255 265 271 262 222 195 194 193 195 199 198 200 199 199 200 199 200 198
286 289 292 295 299 303 306 310 313 315 317 319 322 324 329 327 320 314 298 284 290 282 282 305 284 232 248 262 257 254 243 230 221 221 222 227 238 244 246 250 256 257 258 273 264 225 271 335 20 31 343 324 66 74 36 2 343 4 80 244 269 245 291 317 308 214 208 160 182 193 246 270 277 276 213 194 196 198 200 203 202 204 203 201 203 202 200 199
283 286 289 293 296 299 303 307 311 313 315 317 318 321 327 326 317 307 290 286 284 272 278 287 254 236 252 254 254 253 245 231 224 225 225 232 241 245 247 251 259 255 252 269 248 219 306 9 118 336 21 44 69 83 33 343 310 322 7 258 247 232 253 295 308 299 204 168 214 224 244 259 266 290 188 195 199 201 205 210 208 207 206 204 204 203 202 201
279 282 285 288 291 296 300 303 308 310 312 315 318 322 326 325 315 302 290 283 270 260 276 257 214 233 258 241 237 246 244 228 223 224 227 234 238 240 245 251 255 245 249 265 221 196 333 28 111 26 14 7 26 88 106 254 222 247 265 280 284 262 223 240 272 303 105 213 231 225 249 261 269 269 208 204 203 206 212 215 215 212 208 206 205 204 205 204
273 277 280 284 287 292 295 300 304 306 309 312 316 321 326 326 319 307 283 246 229 258 273 230 198 197 259 240 231 240 245 225 219 223 227 231 232 236 241 246 242 230 229 230 214 126 39 38 61 354 319 293 261 153 194 213 184 203 220 215 258 271 259 240 243 254 207 250 250 231 242 262 271 269 233 213 208 212 220 221 220 217 212 209 208 207 207 208
267 270 274 279 283 287 291 296 299 303 308 312 320 329 337 340 335 327 264 228 256 270 266 248 227 236 260 266 254 246 242 229 221 223 226 227 226 232 235 235 228 217 218 194 232 16 73 49 301 250 246 248 242 201 186 175 154 165 187 221 246 249 273 271 255 269 178 216 260 236 234 258 266 269 255 223 213 216 223 226 225 220 216 213 211 210 209 211
264 265 268 273 276 281 285 290 295 301 307 313 325 337 343 341 334 318 301 282 275 270 264 260 248 248 256 262 259 249 240 237 233 229 227 224 218 219 221 218 193 204 265 146 175 26 74 63 264 241 227 230 231 180 142 117 133 162 207 249 273 234 258 277 283 308 192 181 264 246 235 257 259 268 264 221 204 218 220 221 225 221 219 217 214 213 211 211
262 262 264 268 270 275 279 284 290 295 304 310 321 332 327 322 316 309 312 295 284 278 267 261 255 253 254 254 254 249 240 239 237 226 217 213 209 208 208 185 156 206 292 72 103 2 25 265 259 249 199 144 92 116 125 130 151 178 189 231 282 249 270 292 307 340 2 170 268 274 258 259 258 267 265 223 203 225 223 222 225 221 218 218 216 214 211 209
260 260 261 263 266 271 273 277 284 290 298 302 309 317 313 314 318 318 316 290 287 286 267 257 254 253 252 250 249 239 226 223 229 220 208 205 204 205 200 167 155 190 10 150 167 108 306 248 247 214 141 133 88 73 110 84 207 195 188 204 267 274 305 285 302 342 333 231 266 286 276 263 255 261 266 244 222 232 232 229 230 226 223 223 220 217 212 208
258 257 258 259 262 266 268 274 279 285 291 295 299 298 300 310 316 324 320 284 283 285 261 253 247 247 245 238 233 222 216 218 221 212 203 201 196 197 202 172 140 166 237 192 165 184 245 245 174 111 117 152 170 0 139 206 282 249 207 204 243 265 247 242 291 338 324 306 310 320 297 268 233 243 261 268 233 238 238 233 233 231 230 229 225 221 216 211
256 256 257 257 258 261 265 272 276 280 284 285 286 282 293 307 315 329 329 303 287 282 257 245 238 241 228 210 203 198 206 221 220 209 200 199 194 183 187 173 159 208 219 172 150 217 260 258 149 130 95 135 170 242 211 187 249 298 231 208 226 250 257 269 326 351 347 327 345 14 322 276 200 230 257 290 283 250 238 231 234 232 229 228 226 223 218 213
254 253 254 253 255 257 260 268 272 274 276 272 269 271 289 304 319 333 345 31 301 269 213 206 213 210 199 194 180 164 180 234 216 207 195 196 199 185 163 166 169 215 189 150 150 239 254 354 102 136 140 133 170 248 236 172 152 296 245 194 202 224 267 300 354 6 309 268 290 66 313 274 277 210 246 256 260 259 246 233 237 234 227 225 226 223 216 212
257 254 253 251 251 252 251 254 258 258 259 259 258 260 281 297 324 345 6 16 280 230 162 176 185 180 190 191 172 158 176 203 180 195 192 192 199 191 195 198 142 215 181 134 280 256 171 101 52 101 125 137 181 245 229 160 140 240 228 139 128 127 249 224 85 14 245 270 281 160 173 274 279 241 243 244 245 263 262 249 243 233 227 226 226 223 216 212
261 256 254 250 247 247 243 242 247 248 243 243 249 255 270 282 299 6 54 309 267 162 140 175 167 179 192 185 182 179 137 145 149 192 189 186 193 187 213 218 178 195 180 141 230 259 158 170 193 155 131 181 206 226 193 159 161 240 198 120 104 105 153 149 113 258 287 351 289 205 148 268 277 249 278 302 238 257 261 253 247 229 226 227 224 220 216 212
265 259 255 246 241 242 239 237 239 239 237 237 241 245 245 227 277 51 96 241 264 111 138 176 162 184 177 165 195 214 203 155 161 186 180 181 193 183 208 214 172 166 182 151 222 259 204 197 200 157 159 215 217 222 181 168 193 211 135 96 60 65 72 71 76 318 33 330 271 229 154 224 274 230 159 29 240 245 253 253 252 234 228 227 221 217 214 210
268 262 255 242 236 236 235 233 232 233 230 226 227 224 211 182 112 84 212 237 259 138 117 162 179 179 154 139 215 237 215 234 155 149 166 178 193 182 133 151 108 113 0 347 275 270 322 46 152 168 193 195 153 117 173 166 158 120 93 54 19 26 46 48 47 68 52 278 268 229 173 188 277 246 168 184 219 217 231 252 257 236 228 223 218 215 212 207
268 263 255 242 233 229 228 225 224 226 220 215 216 202 177 152 95 150 220 238 281 230 118 176 207 143 152 151 201 210 184 239 178 153 163 163 173 152 121 129 73 72 358 332 296 307 339 44 249 246 202 137 103 81 37 36 84 96 76 49 7 336 13 20 355 47 71 256 271 230 173 186 243 245 190 224 247 220 214 244 249 232 222 215 214 214 210 205
269 263 253 239 229 224 220 217 216 215 212 206 204 190 157 161 224 196 219 323 309 213 166 184 213 154 168 159 196 194 172 215 187 166 167 156 171 190 182 185 167 88 314 263 272 329 309 231 254 326 222 165 121 78 8 356 40 89 90 76 39 334 354 346 307 48 223 246 256 122 140 216 245 246 237 243 255 247 223 228 239 236 222 212 211 212 207 202
272 259 251 238 227 222 216 212 209 205 202 195 190 168 120 210 231 192 198 237 228 215 146 123 123 135 143 145 240 207 165 212 191 171 173 144 180 232 246 222 173 207 258 211 302 328 294 293 313 48 269 193 164 150 208 267 130 147 144 128 128 105 340 279 269 268 266 268 251 131 123 269 270 261 234 231 243 251 243 241 246 248 236 223 216 210 205 201
265 250 247 242 229 219 212 205 198 195 195 187 174 135 132 228 232 185 205 221 233 355 53 92 87 105 137 180 238 199 175 232 178 154 171 136 165 237 240 230 189 161 148 148 196 198 245 297 219 178 236 185 181 186 166 143 141 177 162 139 148 152 181 234 237 242 280 302 276 158 140 250 270 272 222 232 258 271 271 263 258 255 245 233 218 207 202 199
261 243 243 252 242 221 208 200 192 189 188 180 163 148 206 219 208 184 214 217 230 330 23 50 87 109 228 259 274 224 203 238 152 135 176 175 187 211 199 205 195 153 128 166 242 166 207 268 253 240 335 162 187 213 129 115 113 210 134 115 171 182 171 207 235 214 286 319 285 202 204 229 242 260 215 229 305 287 291 284 262 241 228 214 206 201 199 198
262 239 231 245 244 226 207 198 190 188 187 173 163 217 219 215 175 185 197 173 182 156 112 25 87 135 252 273 274 248 202 225 140 144 206 212 216 211 204 218 194 176 169 170 202 170 193 272 279 353 343 150 174 277 132 136 177 167 136 179 215 181 134 146 279 335 72 290 274 264 266 275 310 292 211 125 301 273 300 302 233 208 201 197 200 199 197 197
256 236 230 233 235 229 211 196 187 192 189 175 199 224 216 207 190 186 175 148 157 136 131 193 204 181 218 241 230 218 183 215 180 166 211 237 234 197 202 246 198 186 193 181 205 215 189 269 262 137 212 248 26 333 351 25 123 129 180 213 197 120 90 109 272 340 43 253 271 291 282 283 297 296 285 67 272 255 261 261 217 201 196 198 202 200 198 198
256 241 240 239 233 230 212 192 188 194 187 179 230 235 211 201 200 182 171 158 127 111 140 206 217 183 193 210 229 201 174 192 183 171 198 225 246 185 163 218 202 193 201 184 199 246 151 260 278 119 217 282 12 25 316 356 83 128 189 215 130 139 143 103 156 244 212 242 269 290 296 281 265 248 260 232 228 236 236 215 202 205 203 204 204 200 198 196
249 239 248 245 235 232 214 192 191 194 185 194 232 236 208 205 216 203 197 188 140 143 174 220 219 191 177 182 200 193 186 194 174 175 202 198 234 201 167 197 193 187 198 172 177 225 127 213 274 348 284 301 22 139 194 221 54 94 179 330 54 169 175 163 172 190 173 223 268 299 314 286 257 196 209 214 209 216 215 202 204 209 208 207 203 199 197 196
226 226 257 249 232 228 210 194 194 192 192 215 223 222 186 198 226 218 213 210 193 189 205 213 198 213 209 184 194 189 191 207 181 186 223 199 220 234 202 194 155 140 164 135 157 185 107 196 248 329 334 267 191 205 194 188 176 164 206 225 216 170 131 216 218 166 163 214 254 283 290 278 259 153 194 206 198 208 206 201 207 212 212 210 204 200 198 198
214 220 254 234 215 206 192 187 200 202 207 230 226 222 217 222 225 222 221 220 221 223 208 184 191 204 194 185 207 187 181 208 191 195 235 211 219 244 209 191 159 137 118 83 155 197 156 188 201 182 239 213 222 236 206 194 187 183 197 199 196 184 149 238 249 216 177 216 225 167 270 272 264 137 187 192 185 208 206 198 203 212 213 210 207 205 201 200
209 222 232 211 198 185 177 181 216 210 215 228 223 221 219 225 224 214 221 222 226 238 226 208 206 202 194 191 195 182 181 202 196 201 234 220 215 223 199 186 168 152 149 142 196 188 133 130 188 216 222 218 245 274 226 226 241 225 220 194 184 183 169 200 235 225 176 230 226 113 262 267 263 107 180 185 190 218 204 194 202 214 215 211 208 207 204 203
206 214 207 203 196 181 173 192 232 208 239 234 227 233 224 228 232 205 210 213 214 219 221 225 205 200 218 209 187 193 195 205 203 196 217 234 224 222 195 179 170 155 146 156 180 137 108 122 213 258 296 325 317 322 358 27 32 258 244 190 179 206 200 204 220 181 153 222 189 120 252 260 273 72 263 203 198 238 201 197 207 214 215 212 209 208 205 204
209 212 205 196 187 181 180 213 214 206 234 226 226 236 227 231 233 214 198 197 202 197 207 223 205 200 222 202 196 210 193 205 225 204 211 232 226 213 194 180 176 172 180 193 176 164 172 176 182 242 294 314 323 323 318 326 229 232 241 193 201 221 211 188 75 131 244 238 205 199 252 259 264 82 300 328 241 247 212 210 216 217 213 212 210 208 206 204
206 213 212 199 186 187 199 220 205 204 220 214 224 230 226 241 236 225 217 208 208 197 193 223 208 198 209 181 198 218 194 210 235 219 216 231 231 209 196 189 188 189 202 201 170 162 177 189 173 204 236 242 248 239 215 219 210 225 238 206 211 216 204 199 208 220 244 238 209 219 250 261 265 224 134 279 250 236 235 227 225 226 221 215 211 209 206 203
192 196 206 193 189 196 212 221 217 221 214 206 223 224 218 237 240 227 222 219 219 210 208 236 204 189 200 182 198 221 215 220 231 230 224 216 216 244 199 197 201 201 208 194 166 157 153 206 199 210 219 224 240 241 192 137 162 205 213 208 212 214 206 203 217 231 236 224 213 234 245 263 270 260 242 262 256 238 235 235 226 225 223 218 214 211 207 204
194 208 197 174 188 205 218 220 216 222 195 177 186 213 217 227 242 231 217 213 213 208 218 244 208 192 206 197 199 219 219 220 226 232 235 215 197 312 209 202 215 214 209 183 171 161 117 226 218 221 225 229 242 245 209 154 203 225 222 215 212 209 199 194 215 229 226 195 245 248 247 258 266 265 262 263 264 254 230 224 223 224 221 218 216 211 206 203
199 221 207 189 184 198 213 213 208 203 192 184 198 229 232 229 230 223 210 205 202 198 207 235 219 215 215 200 197 218 219 223 231 232 233 220 190 199 226 242 230 215 203 180 189 173 139 232 230 225 232 238 245 248 236 212 232 244 247 240 218 197 196 201 217 227 222 223 247 255 258 258 261 266 268 261 262 257 241 234 231 231 224 216 211 205 201 201
208 226 211 198 198 197 205 210 203 194 203 208 212 231 240 237 231 218 185 175 208 204 204 219 224 221 219 205 197 214 216 219 228 227 223 217 210 194 216 261 237 198 188 176 214 191 161 236 239 228 239 247 244 247 248 244 251 258 260 254 227 195 207 211 219 229 228 234 247 257 263 263 263 268 268 266 268 265 257 246 231 224 217 208 205 202 200 202
212 218 203 195 209 215 211 208 197 193 207 208 215 229 232 237 237 224 171 177 207 208 205 221 232 225 215 210 211 223 226 222 227 229 203 195 212 204 211 227 187 156 196 191 215 223 201 235 244 217 243 255 248 243 241 244 251 257 262 260 242 216 225 225 225 232 234 241 249 254 260 264 266 267 266 271 274 265 252 236 220 216 212 206 205 202 202 204
218 221 215 207 219 215 211 203 186 195 209 201 213 227 228 236 236 229 209 208 214 214 200 215 233 233 213 212 218 229 234 229 233 237 217 199 209 210 211 205 160 146 197 191 170 200 203 232 268 135 232 255 253 226 208 243 311 267 262 260 248 231 233 234 230 229 229 238 248 253 255 257 263 267 268 269 263 244 234 225 216 215 212 208 205 204 206 207
218 222 222 225 230 201 198 197 184 200 215 204 213 223 223 233 233 223 229 226 222 225 219 211 225 231 215 215 221 228 235 236 238 245 243 236 229 228 231 207 179 173 177 173 180 185 179 204 211 163 227 256 260 106 109 61 19 266 257 253 243 233 231 237 243 238 231 231 239 247 247 249 256 264 268 265 248 227 227 223 216 215 214 211 210 211 210 209
Height
1562 1562 1561 1561 1560 1559 1558 1557 1556 1554 1553 1552 1551 1549 1548 1547 1546 1545 1544 1543 1542 1540 1539 1538 1537 1537 1536 1535 1535 1535 1535 1534 1534 1534 1534 1533 1533 1532 1532 1531 1530 1530 1529 1528 1527 1527 1526 1526 1525 1524 1523 1523 1523 1522 1522 1522 1522 1522 1525 1528 1531 1536 1535 1533 1535 1535 1532 1531 1532 1533 1533 1534 1536 1536 1536 1537 1538 1537 1538 1539 1539 1538 1538 1538 1539 1540 1541 1542
1562 1561 1561 1560 1559 1559 1558 1557 1556 1555 1554 1552 1551 1550 1548 1547 1546 1545 1544 1543 1542 1541 1540 1538 1537 1537 1537 1536 1536 1535 1535 1535 1535 1535 1534 1534 1533 1533 1532 1531 1531 1530 1529 1528 1528 1527 1526 1526 1525 1524 1523 1523 1523 1522 1522 1523 1522 1523 1528 1529 1531 1534 1532 1529 1530 1530 1530 1529 1530 1532 1533 1533 1533 1534 1535 1536 1539 1538 1538 1539 1540 1538 1538 1538 1538 1539 1540 1541
1561 1561 1560 1560 1559 1559 1558 1557 1556 1555 1554 1553 1551 1550 1549 1547 1546 1545 1544 1543 1542 1541 1540 1539 1538 1537 1537 1536 1536 1535 1535 1535 1535 1535 1534 1534 1533 1533 1532 1531 1531 1530 1529 1528 1528 1527 1526 1525 1524 1524 1523 1522 1523 1522 1522 1522 1523 1523 1526 1528 1529 1530 1529 1528 1528 1528 1528 1528 1529 1531 1532 1532 1532 1533 1533 1534 1538 1538 1537 1536 1537 1537 1536 1537 1537 1538 1539 1540
1561 1560 1560 1559 1559 1558 1557 1557 1556 1555 1554 1553 1552 1550 1549 1548 1546 1545 1544 1543 1542 1541 1540 1539 1538 1537 1537 1536 1536 1536 1535 1535 1535 1534 1534 1534 1533 1533 1532 1531 1531 1531 1530 1529 1528 1527 1526 1525 1524 1524 1523 1523 1523 1522 1523 1523 1523 1524 1524 1526 1527 1528 1528 1527 1527 1527 1528 1528 1528 1529 1531 1532 1531 1532 1532 1533 1536 1537 1534 1530 1530 1532 1533 1534 1535 1537 1538 1538
1560 1560 1559 1559 1558 1557 1557 1556 1555 1555 1554 1553 1552 1550 1549 1548 1546 1545 1544 1543 1542 1541 1540 1539 1538 1537 1536 1536 1536 1536 1536 1536 1535 1534 1534 1534 1534 1533 1532 1532 1531 1531 1530 1529 1528 1527 1526 1525 1524 1524 1523 1523 1523 1523 1524 1524 1524 1525 1525 1525 1526 1526 1527 1526 1527 1527 1527 1527 1528 1529 1530 1530 1531 1531 1531 1530 1530 1530 1528 1527 1528 1529 1530 1532 1533 1535 1536 1537
1560 1559 1558 1558 1557 1557 1556 1555 1555 1554 1553 1552 1551 1550 1549 1548 1546 1545 1544 1543 1542 1541 1540 1539 1538 1537 1537 1536 1536 1535 1536 1536 1535 1534 1534 1534 1534 1533 1533 1532 1532 1531 1530 1529 1529 1528 1527 1526 1524 1524 1524 1524 1526 1525 1525 1525 1524 1525 1526 1526 1526 1526 1526 1526 1527 1527 1526 1527 1527 1527 1528 1529 1530 1530 1529 1528 1526 1526 1525 1526 1528 1529 1530 1531 1532 1533 1534 1535
1559 1558 1558 1557 1557 1556 1555 1555 1554 1553 1552 1552 1551 1550 1549 1548 1546 1545 1544 1543 1542 1540 1539 1539 1538 1537 1537 1536 1536 1535 1535 1535 1534 1534 1534 1534 1534 1533 1533 1532 1532 1531 1531 1530 1529 1528 1527 1526 1525 1525 1525 1526 1526 1526 1525 1525 1525 1526 1526 1526 1527 1526 1526 1526 1526 1526 1526 1526 1525 1526 1526 1527 1527 1528 1529 1528 1526 1526 1526 1527 1528 1529 1530 1531 1531 1532 1533 1533
1558 1558 1557 1556 1556 1555 1554 1554 1553 1552 1551 1551 1550 1549 1548 1547 1546 1544 1543 1543 1541 1540 1539 1538 1537 1537 1537 1536 1536 1536 1535 1534 1534 1534 1534 1533 1533 1533 1533 1532 1532 1531 1531 1530 1529 1529 1527 1526 1526 1526 1526 1527 1527 1527 1526 1525 1525 1526 1526 1526 1527 1527 1527 1527 1527 1526 1526 1526 1526 1526 1526 1526 1526 1526 1526 1525 1524 1525 1525 1526 1527 1527 1528 1529 1530 1530 1531 1532
1557 1557 1556 1556 1555 1554 1554 1553 1552 1551 1550 1550 1549 1548 1547 1546 1545 1544 1543 1542 1541 1540 1539 1538 1537 1536 1536 1536 1536 1536 1534 1534 1534 1533 1533 1533 1533 1532 1532 1532 1532 1531 1531 1530 1529 1529 1528 1527 1527 1527 1527 1527 1527 1527 1526 1526 1526 1526 1526 1526 1526 1527 1527 1527 1526 1526 1526 1526 1525 1525 1525 1526 1525 1526 1524 1522 1523 1523 1523 1524 1524 1525 1526 1527 1528 1529 1530 1530
1557 1556 1555 1555 1554 1554 1553 1552 1551 1550 1550 1549 1548 1547 1546 1545 1544 1543 1542 1541 1540 1540 1539 1538 1537 1536 1536 1536 1536 1536 1534 1533 1533 1533 1533 1533 1533 1532 1532 1532 1531 1531 1531 1530 1529 1528 1528 1528 1528 1527 1527 1527 1527 1527 1526 1527 1527 1526 1526 1525 1525 1525 1525 1526 1525 1525 1525 1525 1525 1524 1525 1525 1526 1526 1521 1519 1521 1521 1522 1523 1523 1524 1524 1525 1526 1527 1528 1528
1556 1555 1555 1554 1553 1553 1552 1551 1550 1550 1549 1548 1547 1546 1545 1545 1543 1542 1541 1540 1539 1539 1538 1537 1536 1536 1536 1535 1536 1535 1533 1533 1533 1532 1533 1532 1532 1532 1531 1531 1531 1531 1530 1529 1529 1528 1528 1527 1528 1527 1527 1527 1527 1527 1526 1526 1526 1526 1525 1524 1524 1524 1524 1524 1523 1524 1524 1524 1524 1524 1525 1525 1526 1524 1516 1516 1519 1520 1520 1521 1522 1522 1523 1524 1525 1526 1526 1527
1555 1554 1554 1553 1552 1552 1551 1550 1549 1549 1548 1547 1546 1545 1545 1544 1543 1541 1540 1539 1538 1538 1537 1536 1536 1535 1535 1534 1534 1533 1532 1532 1532 1532 1532 1532 1532 1531 1531 1531 1530 1530 1530 1529 1528 1528 1528 1527 1527 1527 1527 1527 1527 1527 1526 1526 1526 1525 1525 1524 1523 1523 1522 1522 1522 1522 1523 1523 1523 1525 1525 1523 1523 1518 1512 1514 1517 1519 1520 1520 1521 1521 1522 1523 1524 1524 1525 1525
1554 1553 1553 1552 1551 1551 1550 1549 1548 1548 1547 1546 1545 1544 1544 1542 1542 1540 1539 1538 1537 1537 1536 1536 1535 1534 1534 1533 1531 1531 1532 1531 1531 1531 1531 1531 1531 1531 1531 1530 1530 1530 1529 1529 1528 1528 1527 1527 1527 1527 1527 1527 1527 1527 1526 1526 1525 1525 1527 1527 1526 1525 1523 1521 1522 1522 1522 1523 1523 1525 1525 1516 1514 1513 1511 1514 1515 1517 1519 1518 1519 1519 1521 1521 1522 1523 1523 1523
1553 1552 1551 1551 1550 1549 1549 1548 1547 1546 1545 1545 1544 1543 1542 1541 1540 1539 1538 1537 1536 1536 1535 1535 1534 1533 1533 1531 1530 1530 1530 1530 1531 1531 1531 1531 1530 1530 1530 1529 1529 1529 1528 1528 1528 1527 1527 1527 1526 1526 1526 1527 1527 1527 1527 1527 1526 1527 1528 1529 1533 1531 1524 1521 1523 1522 1522 1524 1522 1526 1526 1512 1507 1511 1512 1513 1513 1514 1515 1515 1516 1517 1518 1519 1519 1520 1520 1521
1551 1551 1550 1549 1549 1548 1547 1547 1546 1545 1544 1543 1542 1542 1541 1540 1539 1537 1536 1535 1535 1535 1534 1534 1533 1533 1532 1530 1529 1529 1529 1529 1530 1530 1530 1530 1530 1530 1529 1529 1528 1528 1528 1527 1527 1527 1526 1526 1525 1525 1526 1526 1526 1527 1527 1528 1528 1530 1528 1529 1537 1535 1527 1522 1522 1522 1521 1523 1523 1526 1525 1513 1507 1508 1509 1511 1512 1512 1512 1512 1514 1514 1515 1516 1516 1518 1518 1519
1550 1550 1549 1548 1548 1547 1546 1545 1545 1544 1543 1542 1541 1541 1540 1538 1537 1536 1534 1533 1533 1533 1533 1533 1532 1532 1531 1528 1527 1527 1527 1528 1528 1528 1529 1529 1529 1528 1528 1528 1528 1527 1527 1527 1526 1526 1526 1526 1525 1526 1526 1525 1527 1527 1528 1529 1529 1533 1532 1529 1533 1534 1532 1526 1521 1521 1521 1522 1523 1524 1521 1511 1506 1507 1507 1510 1510 1510 1510 1510 1511 1511 1511 1512 1513 1514 1515 1516
1549 1548 1548 1547 1546 1546 1545 1544 1543 1542 1541 1541 1540 1539 1538 1537 1535 1534 1533 1532 1532 1531 1532 1531 1531 1531 1529 1527 1526 1525 1525 1526 1527 1527 1527 1528 1528 1527 1528 1527 1527 1526 1526 1526 1526 1525 1525 1525 1526 1526 1526 1528 1529 1528 1530 1532 1529 1531 1534 1531 1531 1532 1534 1529 1521 1520 1522 1522 1522 1522 1520 1510 1503 1506 1508 1508 1508 1508 1508 1508 1507 1508 1508 1509 1510 1511 1512 1512
1547 1547 1546 1546 1545 1545 1544 1543 1542 1541 1540 1539 1538 1537 1536 1535 1534 1532 1531 1530 1530 1530 1531 1530 1530 1532 1528 1523 1524 1523 1523 1524 1525 1526 1526 1526 1527 1527 1527 1526 1526 1526 1525 1525 1525 1525 1525 1525 1526 1527 1528 1529 1529 1528 1531 1532 1528 1529 1532 1531 1531 1532 1532 1530 1524 1521 1521 1522 1521 1522 1520 1510 1502 1504 1507 1507 1507 1506 1504 1504 1504 1505 1506 1507 1508 1508 1508 1509
1545 1545 1544 1544 1544 1543 1543 1542 1541 1540 1539 1538 1537 1536 1534 1533 1532 1530 1529 1529 1529 1529 1529 1528 1527 1528 1524 1521 1522 1522 1522 1523 1523 1524 1525 1525 1526 1526 1526 1525 1525 1525 1525 1524 1524 1524 1524 1525 1527 1528 1527 1527 1526 1527 1527 1527 1527 1529 1531 1532 1532 1531 1529 1526 1523 1521 1521 1521 1520 1519 1517 1509 1502 1501 1502 1504 1504 1503 1501 1502 1503 1503 1504 1505 1505 1505 1505 1505
1542 1542 1542 1542 1542 1542 1541 1541 1540 1539 1538 1536 1536 1535 1533 1533 1531 1530 1529 1528 1528 1527 1526 1525 1524 1522 1520 1519 1521 1521 1521 1522 1522 1522 1523 1524 1524 1524 1525 1525 1524 1524 1524 1524 1524 1524 1524 1526 1527 1527 1526 1524 1524 1526 1526 1527 1529 1529 1531 1532 1532 1533 1527 1520 1520 1521 1522 1521 1516 1514 1515 1510 1502 1497 1497 1499 1501 1501 1501 1501 1500 1500 1500 1500 1500 1500 1501 1502
1539 1540 1540 1540 1540 1540 1540 1539 1539 1539 1537 1536 1536 1535 1534 1534 1533 1532 1529 1527 1526 1524 1522 1522 1522 1520 1518 1519 1519 1519 1520 1520 1520 1521 1521 1522 1523 1523 1523 1524 1524 1524 1524 1524 1525 1524 1526 1526 1524 1523 1523 1524 1524 1527 1527 1528 1529 1530 1531 1531 1531 1534 1528 1518 1520 1521 1521 1522 1514 1511 1514 1509 1502 1495 1491 1495 1498 1495 1495 1495 1494 1495 1496 1495 1495 1496 1497 1499
1537 1537 1537 1538 1538 1538 1538 1538 1538 1538 1537 1537 1536 1536 1536 1535 1534 1533 1531 1526 1522 1521 1520 1519 1518 1517 1516 1517 1517 1518 1519 1518 1518 1518 1519 1520 1521 1521 1521 1522 1523 1523 1524 1525 1525 1526 1528 1524 1520 1520 1523 1525 1525 1527 1527 1527 1529 1530 1532 1533 1531 1530 1527 1520 1520 1522 1522 1522 1514 1510 1511 1505 1500 1494 1486 1489 1491 1487 1486 1487 1486 1488 1490 1490 1490 1491 1493 1496
1533 1534 1535 1535 1535 1536 1536 1536 1536 1536 1536 1536 1536 1536 1535 1535 1534 1533 1532 1528 1520 1516 1516 1514 1514 1513 1513 1514 1514 1515 1516 1516 1516 1516 1517 1518 1519 1520 1520 1521 1523 1523 1524 1524 1523 1526 1525 1520 1518 1521 1522 1522 1524 1526 1527 1527 1529 1529 1530 1532 1528 1526 1527 1522 1520 1522 1522 1520 1515 1512 1508 1501 1498 1491 1481 1481 1484 1482 1482 1481 1482 1484 1484 1483 1485 1486 1488 1490
1530 1531 1532 1532 1533 1534 1534 1535 1535 1535 1535 1535 1535 1535 1534 1534 1533 1532 1531 1528 1521 1514 1512 1511 1511 1510 1511 1512 1512 1513 1514 1513 1513 1513 1515 1516 1517 1519 1519 1520 1522 1523 1522 1522 1523 1523 1520 1518 1520 1522 1522 1522 1523 1525 1526 1526 1527 1527 1527 1528 1524 1522 1524 1522 1523 1525 1521 1519 1518 1514 1501 1489 1490 1488 1478 1478 1482 1480 1480 1480 1480 1480 1480 1481 1483 1484 1484 1485
1526 1528 1529 1529 1531 1531 1532 1533 1533 1534 1534 1534 1534 1533 1534 1533 1532 1532 1530 1528 1522 1513 1510 1510 1509 1509 1508 1510 1510 1511 1512 1512 1511 1512 1513 1514 1516 1517 1517 1518 1520 1520 1521 1523 1524 1521 1517 1518 1520 1520 1522 1523 1523 1523 1524 1525 1527 1525 1522 1521 1521 1519 1521 1523 1526 1526 1521 1518 1519 1519 1505 1483 1481 1487 1481 1479 1481 1478 1478 1478 1475 1475 1476 1479 1479 1479 1481 1483
1523 1524 1525 1527 1528 1529 1531 1531 1531 1533 1532 1533 1533 1533 1534 1532 1532 1532 1530 1532 1526 1512 1507 1508 1508 1508 1507 1508 1510 1510 1512 1510 1509 1510 1511 1513 1514 1515 1516 1517 1518 1518 1520 1522 1523 1519 1517 1519 1519 1519 1520 1522 1523 1523 1523 1524 1527 1526 1519 1519 1521 1520 1523 1525 1526 1525 1522 1519 1520 1525 1521 1497 1479 1480 1478 1476 1477 1475 1475 1475 1471 1471 1473 1473 1473 1474 1477 1480
1519 1521 1522 1524 1525 1526 1529 1529 1530 1531 1531 1533 1532 1532 1534 1531 1533 1531 1530 1537 1527 1506 1504 1507 1506 1506 1506 1508 1509 1509 1510 1507 1507 1509 1510 1511 1513 1513 1514 1516 1517 1517 1518 1521 1520 1516 1515 1517 1519 1519 1520 1522 1522 1520 1520 1522 1525 1523 1519 1521 1521 1520 1523 1525 1527 1527 1524 1524 1522 1521 1526 1512 1486 1477 1476 1473 1474 1473 1471 1469 1467 1467 1468 1467 1468 1470 1472 1476
1517 1518 1519 1522 1523 1523 1526 1527 1528 1529 1531 1531 1530 1532 1532 1531 1534 1530 1534 1542 1521 1499 1501 1504 1504 1505 1505 1507 1507 1507 1507 1505 1506 1508 1508 1510 1511 1512 1513 1513 1514 1514 1515 1518 1517 1512 1512 1514 1515 1516 1519 1521 1518 1514 1516 1519 1519 1518 1520 1522 1521 1521 1523 1525 1527 1527 1528 1529 1520 1514 1524 1518 1487 1473 1478 1478 1475 1472 1466 1462 1460 1461 1463 1461 1463 1467 1469 1473
1515 1516 1517 1519 1520 1521 1523 1525 1526 1527 1529 1529 1530 1531 1531 1533 1533 1530 1540 1540 1511 1496 1501 1502 1503 1505 1504 1506 1507 1506 1506 1505 1506 1506 1507 1510 1510 1510 1512 1512 1513 1513 1514 1515 1512 1510 1512 1513 1513 1514 1516 1514 1512 1514 1516 1516 1515 1516 1520 1521 1521 1524 1525 1528 1528 1526 1532 1528 1511 1508 1519 1515 1482 1461 1472 1480 1475 1469 1462 1457 1456 1455 1457 1458 1460 1464 1466 1470
1513 1513 1514 1516 1517 1519 1521 1522 1524 1526 1527 1528 1529 1530 1531 1532 1532 1537 1546 1532 1505 1499 1503 1501 1502 1504 1503 1506 1506 1506 1507 1506 1506 1506 1508 1509 1509 1510 1511 1511 1513 1514 1515 1516 1513 1511 1512 1514 1514 1513 1511 1509 1511 1516 1518 1517 1517 1517 1520 1519 1520 1524 1526 1531 1531 1529 1530 1515 1499 1501 1509 1511 1489 1459 1461 1468 1460 1457 1453 1451 1453 1452 1453 1455 1457 1460 1462 1466
1510 1511 1512 1514 1516 1517 1518 1521 1522 1524 1526 1527 1528 1530 1531 1532 1535 1541 1536 1516 1502 1502 1500 1500 1503 1502 1503 1504 1504 1505 1506 1506 1506 1506 1507 1508 1509 1510 1511 1511 1513 1516 1518 1516 1513 1514 1514 1513 1513 1509 1508 1509 1511 1515 1518 1519 1519 1518 1519 1519 1518 1521 1523 1527 1529 1531 1526 1504 1494 1503 1507 1511 1495 1461 1455 1457 1450 1451 1450 1447 1448 1448 1449 1451 1453 1456 1458 1462
1508 1509 1510 1511 1513 1514 1517 1519 1520 1522 1524 1525 1528 1529 1530 1534 1536 1531 1520 1506 1501 1499 1495 1499 1502 1501 1503 1504 1502 1504 1505 1504 1504 1504 1506 1508 1509 1508 1507 1507 1508 1512 1514 1514 1512 1512 1510 1509 1510 1508 1508 1509 1510 1514 1519 1520 1520 1519 1520 1522 1523 1526 1527 1523 1521 1523 1517 1501 1499 1508 1509 1503 1479 1452 1452 1453 1448 1449 1449 1447 1446 1445 1447 1449 1451 1453 1455 1459
1506 1507 1508 1509 1510 1512 1515 1516 1519 1521 1522 1524 1527 1527 1532 1537 1527 1514 1510 1503 1496 1495 1495 1497 1500 1501 1503 1503 1502 1503 1504 1502 1502 1503 1505 1507 1509 1507 1505 1505 1506 1504 1506 1514 1515 1509 1504 1504 1508 1508 1505 1506 1506 1509 1513 1513 1517 1519 1518 1518 1520 1528 1532 1525 1518 1515 1506 1497 1501 1510 1508 1489 1459 1443 1445 1445 1443 1445 1446 1447 1446 1444 1447 1447 1448 1452 1453 1457
1504 1505 1506 1506 1508 1510 1512 1515 1517 1518 1521 1523 1525 1528 1535 1532 1515 1505 1505 1498 1493 1496 1497 1497 1500 1502 1502 1501 1500 1500 1500 1500 1501 1502 1504 1507 1509 1506 1502 1503 1506 1503 1504 1513 1514 1511 1507 1500 1500 1503 1501 1502 1503 1502 1504 1506 1513 1518 1516 1515 1514 1518 1522 1517 1510 1508 1500 1494 1497 1506 1501 1474 1448 1438 1439 1440 1442 1444 1445 1445 1444 1444 1446 1446 1448 1450 1452 1454
1502 1503 1504 1505 1506 1507 1510 1513 1515 1517 1520 1520 1523 1528 1525 1514 1504 1502 1500 1495 1495 1496 1497 1499 1501 1501 1502 1501 1500 1498 1496 1496 1500 1503 1503 1504 1504 1500 1497 1497 1501 1503 1504 1509 1510 1513 1514 1502 1497 1501 1500 1501 1502 1501 1504 1504 1509 1517 1518 1516 1512 1508 1509 1510 1509 1509 1512 1508 1499 1495 1484 1460 1444 1438 1439 1444 1444 1443 1445 1443 1443 1444 1443 1446 1447 1447 1449 1451
1500 1501 1502 1502 1502 1505 1508 1510 1512 1515 1517 1518 1523 1521 1505 1493 1494 1496 1491 1489 1491 1492 1496 1500 1500 1501 1502 1499 1498 1497 1495 1496 1500 1501 1501 1503 1500 1497 1494 1490 1492 1495 1495 1499 1503 1506 1507 1500 1499 1504 1501 1503 1504 1502 1504 1501 1501 1514 1517 1510 1510 1510 1507 1508 1512 1515 1522 1518 1495 1480 1469 1452 1444 1436 1434 1443 1443 1440 1445 1442 1442 1444 1442 1444 1444 1444 1447 1448
1499 1499 1499 1499 1500 1503 1506 1508 1511 1513 1514 1517 1516 1503 1488 1486 1488 1487 1485 1486 1487 1488 1493 1496 1494 1495 1496 1494 1493 1494 1494 1496 1499 1498 1499 1500 1493 1489 1490 1486 1485 1487 1484 1488 1493 1495 1496 1493 1496 1502 1499 1501 1505 1502 1504 1503 1501 1508 1509 1504 1508 1512 1510 1512 1517 1518 1523 1520 1494 1477 1470 1454 1447 1440 1434 1442 1442 1436 1440 1442 1442 1444 1442 1442 1441 1441 1444 1445
1497 1498 1496 1495 1497 1500 1503 1507 1509 1510 1513 1515 1506 1491 1485 1485 1482 1481 1483 1483 1484 1486 1489 1490 1488 1487 1489 1490 1489 1491 1493 1493 1496 1497 1495 1494 1486 1478 1482 1481 1480 1483 1481 1483 1487 1491 1496 1492 1495 1505 1503 1501 1505 1503 1502 1503 1503 1504 1503 1504 1506 1507 1509 1515 1519 1514 1516 1518 1496 1477 1470 1450 1435 1434 1429 1432 1435 1430 1434 1440 1441 1441 1439 1439 1439 1439 1442 1443
1496 1497 1493 1490 1494 1497 1500 1505 1506 1508 1512 1508 1498 1489 1484 1481 1479 1480 1480 1480 1482 1484 1485 1484 1482 1484 1487 1487 1486 1489 1491 1490 1493 1494 1489 1488 1483 1475 1475 1475 1476 1481 1481 1483 1486 1488 1495 1492 1492 1504 1508 1504 1504 1503 1499 1499 1504 1506 1505 1507 1506 1504 1507 1509 1512 1508 1505 1508 1494 1480 1474 1442 1417 1422 1421 1420 1426 1425 1429 1436 1436 1436 1434 1434 1435 1435 1438 1440
1494 1495 1489 1487 1491 1493 1497 1503 1504 1504 1502 1493 1485 1484 1480 1478 1478 1478 1477 1479 1480 1479 1481 1481 1481 1482 1483 1485 1485 1485 1487 1488 1490 1490 1484 1482 1478 1473 1472 1470 1473 1480 1482 1484 1486 1487 1494 1494 1491 1501 1510 1505 1497 1494 1491 1489 1496 1502 1503 1506 1505 1505 1508 1507 1508 1504 1498 1502 1496 1491 1484 1440 1407 1415 1417 1414 1421 1421 1423 1428 1429 1431 1430 1429 1431 1431 1433 1435
1492 1491 1484 1484 1489 1489 1495 1500 1497 1493 1489 1481 1477 1478 1477 1476 1475 1474 1475 1477 1476 1475 1476 1477 1477 1477 1477 1481 1483 1481 1483 1485 1485 1486 1481 1477 1474 1469 1466 1465 1468 1476 1481 1485 1486 1484 1489 1492 1490 1497 1503 1496 1486 1485 1487 1485 1486 1489 1490 1492 1493 1497 1503 1504 1503 1497 1496 1498 1488 1491 1488 1437 1402 1413 1415 1412 1418 1418 1418 1422 1423 1426 1425 1425 1427 1427 1429 1430
1487 1484 1480 1482 1486 1486 1491 1493 1486 1484 1481 1474 1472 1473 1473 1472 1471 1471 1472 1473 1474 1474 1474 1473 1472 1473 1473 1473 1474 1476 1478 1479 1481 1482 1476 1471 1468 1462 1460 1462 1464 1468 1473 1479 1481 1479 1482 1488 1488 1488 1488 1487 1485 1487 1490 1488 1486 1487 1485 1484 1485 1489 1491 1492 1490 1487 1492 1491 1481 1494 1489 1430 1399 1415 1415 1412 1418 1416 1417 1420 1420 1422 1421 1421 1424 1424 1426 1428
1477 1476 1477 1481 1482 1483 1489 1487 1482 1480 1475 1468 1469 1470 1469 1469 1468 1468 1469 1470 1471 1470 1470 1468 1465 1467 1468 1468 1470 1471 1472 1472 1472 1473 1470 1466 1461 1457 1457 1460 1462 1465 1469 1472 1475 1478 1481 1484 1484 1482 1480 1483 1488 1489 1489 1489 1490 1487 1482 1482 1483 1480 1476 1478 1479 1479 1484 1481 1480 1497 1479 1418 1399 1419 1417 1414 1418 1415 1416 1418 1416 1419 1418 1419 1422 1421 1423 1425
1469 1472 1474 1477 1480 1482 1481 1476 1472 1473 1470 1468 1470 1468 1467 1466 1463 1463 1463 1463 1462 1462 1462 1460 1459 1462 1463 1464 1465 1465 1467 1468 1464 1463 1463 1459 1454 1453 1455 1457 1458 1461 1462 1462 1465 1471 1475 1478 1480 1483 1482 1482 1483 1485 1486 1489 1490 1483 1475 1477 1477 1473 1474 1478 1479 1483 1481 1469 1473 1485 1456 1408 1403 1419 1416 1415 1417 1414 1415 1416 1414 1416 1416 1416 1418 1419 1421 1423
1467 1470 1469 1471 1475 1475 1469 1462 1462 1464 1465 1467 1467 1465 1466 1464 1456 1455 1456 1455 1454 1454 1455 1455 1456 1457 1458 1460 1462 1461 1462 1462 1458 1456 1455 1453 1452 1451 1452 1453 1454 1454 1454 1454 1456 1460 1465 1468 1471 1476 1480 1478 1470 1465 1469 1475 1480 1478 1472 1472 1473 1472 1474 1473 1475 1481 1473 1459 1465 1466 1435 1405 1404 1412 1413 1413 1413 1412 1413 1414 1414 1414 1413 1414 1415 1416 1418 1420
1463 1462 1462 1465 1468 1465 1460 1457 1459 1460 1459 1463 1465 1463 1463 1458 1449 1447 1451 1451 1450 1451 1452 1451 1452 1453 1455 1457 1458 1458 1457 1456 1455 1453 1449 1448 1448 1448 1450 1451 1451 1451 1452 1453 1454 1456 1460 1462 1459 1457 1459 1458 1448 1443 1451 1459 1464 1466 1464 1464 1466 1466 1468 1469 1472 1470 1457 1454 1459 1441 1420 1413 1403 1399 1409 1410 1407 1409 1410 1410 1411 1410 1410 1411 1412 1412 1414 1415
1454 1449 1448 1453 1458 1458 1455 1452 1454 1454 1454 1458 1460 1454 1451 1449 1447 1446 1446 1446 1446 1450 1451 1448 1447 1449 1448 1449 1451 1451 1450 1451 1452 1448 1443 1443 1445 1448 1451 1450 1450 1452 1452 1453 1454 1454 1456 1455 1450 1447 1445 1441 1436 1436 1445 1450 1448 1449 1451 1455 1458 1461 1465 1469 1464 1449 1444 1456 1449 1418 1414 1422 1400 1387 1402 1405 1399 1403 1405 1405 1405 1404 1405 1406 1406 1409 1410 1412
1442 1437 1435 1439 1441 1443 1443 1440 1442 1448 1452 1453 1451 1446 1443 1444 1444 1442 1440 1441 1444 1446 1447 1444 1441 1438 1435 1437 1443 1446 1447 1449 1447 1441 1437 1440 1443 1447 1449 1450 1452 1452 1452 1455 1454 1451 1453 1447 1440 1443 1444 1439 1436 1436 1441 1445 1443 1443 1442 1442 1448 1456 1461 1459 1448 1437 1440 1447 1427 1404 1412 1416 1390 1382 1396 1396 1394 1398 1397 1397 1399 1398 1400 1401 1403 1405 1406 1407
1431 1430 1432 1432 1428 1426 1427 1428 1434 1443 1446 1447 1446 1443 1439 1434 1431 1431 1435 1441 1442 1439 1439 1436 1428 1425 1429 1435 1440 1441 1440 1438 1433 1429 1431 1436 1439 1443 1446 1446 1449 1452 1453 1454 1453 1452 1450 1441 1435 1440 1442 1439 1437 1437 1440 1443 1443 1443 1437 1431 1438 1448 1448 1444 1439 1435 1436 1431 1414 1406 1413 1403 1380 1381 1390 1386 1389 1395 1392 1392 1394 1394 1396 1397 1398 1400 1400 1401
1422 1422 1425 1427 1424 1422 1423 1425 1432 1436 1436 1441 1442 1435 1429 1424 1422 1425 1431 1434 1434 1433 1432 1428 1420 1420 1428 1434 1436 1432 1422 1416 1416 1418 1425 1432 1436 1440 1440 1437 1440 1450 1453 1451 1452 1453 1448 1439 1436 1440 1441 1436 1433 1435 1441 1443 1443 1443 1432 1421 1428 1437 1436 1436 1436 1433 1432 1427 1414 1413 1417 1398 1374 1376 1384 1382 1385 1390 1388 1388 1389 1388 1391 1392 1392 1394 1394 1394
1415 1416 1420 1423 1420 1419 1420 1422 1426 1429 1429 1432 1430 1421 1420 1419 1417 1422 1426 1424 1422 1422 1423 1421 1419 1422 1428 1432 1430 1420 1409 1409 1414 1415 1418 1423 1425 1427 1428 1426 1430 1442 1448 1449 1448 1448 1448 1444 1439 1442 1444 1434 1429 1438 1443 1443 1449 1448 1428 1413 1419 1427 1424 1422 1422 1421 1422 1419 1415 1417 1416 1394 1371 1372 1379 1379 1381 1384 1382 1382 1383 1383 1385 1385 1386 1387 1387 1387
1413 1415 1417 1419 1415 1413 1417 1418 1421 1423 1418 1415 1413 1410 1413 1414 1413 1421 1425 1418 1413 1413 1416 1418 1419 1422 1426 1425 1416 1407 1404 1409 1414 1415 1417 1419 1419 1419 1421 1422 1423 1429 1438 1444 1443 1442 1443 1441 1438 1444 1443 1433 1435 1445 1445 1448 1455 1438 1406 1394 1404 1412 1414 1412 1410 1408 1406 1408 1411 1407 1394 1377 1369 1373 1376 1375 1376 1377 1375 1375 1377 1378 1379 1380 1380 1380 1381 1382